#�ϑ�����,���ϕ���,���ϕ���,�ő啗��,�ő啗����������,�ő�u�ԕ���,�ő�u�ԕ�����������
#(�N����),(m/s)   ,(16����),(m/s)   ,(16����)        ,(m/s)       ,(16����)            
2016/6/1 0:01,3.2,1,3.3,1,2.9,1
2016/6/1 0:02,3,1,3.1,1,2.6,3
2016/6/1 0:03,2.8,1,3,1,3.2,1
2016/6/1 0:04,2.6,1,2.7,1,2,1
2016/6/1 0:05,2.4,1,2.6,1,1.8,3
2016/6/1 0:06,2.3,2,2.4,1,4.9,4
2016/6/1 0:07,2.2,2,2.3,1,4.8,16
2016/6/1 0:08,2.2,2,2.2,1,7.5,16
2016/6/1 0:09,2.1,2,2.2,1,4.4,2
2016/6/1 0:10,2.3,2,2.3,1,6.9,1
2016/6/1 0:11,2.6,2,2.6,1,6.8,16
2016/6/1 0:12,2.7,1,2.7,1,4.3,2
2016/6/1 0:13,2.7,1,2.7,1,3.6,1
2016/6/1 0:14,3,1,3,1,5.8,1
2016/6/1 0:15,3.3,1,3.3,1,6.9,2
2016/6/1 0:16,3.4,1,3.4,1,5,1
2016/6/1 0:17,3.4,1,3.4,1,5.5,1
2016/6/1 0:18,3.2,1,3.4,1,6.7,2
2016/6/1 0:19,3.6,1,3.6,1,10.6,16
2016/6/1 0:20,3.7,16,3.7,1,7.6,16
2016/6/1 0:21,3.7,1,3.7,1,7.1,16
2016/6/1 0:22,3.6,16,3.7,1,3.3,1
2016/6/1 0:23,3.6,1,3.6,1,3.7,16
2016/6/1 0:24,3.6,1,3.6,1,7.8,1
2016/6/1 0:25,3.5,16,3.6,1,7.5,16
2016/6/1 0:26,3.5,16,3.5,1,5.2,16
2016/6/1 0:27,3.6,1,3.6,1,6.5,1
2016/6/1 0:28,3.7,16,3.7,1,7,16
2016/6/1 0:29,3.5,16,3.7,1,5.6,1
2016/6/1 0:30,3.2,1,3.5,16,3.6,2
2016/6/1 0:31,3.1,1,3.1,1,5.4,1
2016/6/1 0:32,3.1,1,3.1,16,5,2
2016/6/1 0:33,3.2,1,3.2,16,5.2,1
2016/6/1 0:34,3.1,1,3.2,16,4.3,1
2016/6/1 0:35,2.8,1,3.1,16,2.4,1
2016/6/1 0:36,2.8,1,2.8,16,5.1,16
2016/6/1 0:37,2.6,1,2.8,16,5.1,1
2016/6/1 0:38,2.5,1,2.6,16,5.4,15
2016/6/1 0:39,2.2,1,2.5,16,2,1
2016/6/1 0:40,2.1,1,2.2,1,1.8,16
2016/6/1 0:41,2,1,2.1,1,3.1,15
2016/6/1 0:42,2,1,2,1,4.2,16
2016/6/1 0:43,1.9,1,2,1,3.3,4
2016/6/1 0:44,2,1,2,1,6,4
2016/6/1 0:45,2.1,1,2.1,1,5.8,3
2016/6/1 0:46,2,1,2.1,1,1.9,16
2016/6/1 0:47,1.8,1,2,1,3.1,3
2016/6/1 0:48,1.7,1,1.8,1,4.5,2
2016/6/1 0:49,1.9,2,1.9,1,4.9,1
2016/6/1 0:50,1.9,2,1.9,1,3.6,3
2016/6/1 0:51,2.1,2,2.1,1,5.4,1
2016/6/1 0:52,2,2,2.1,1,2.2,16
2016/6/1 0:53,1.9,1,2,1,1.5,1
2016/6/1 0:54,1.6,1,1.9,1,1.6,15
2016/6/1 0:55,1.6,1,1.6,1,2.9,15
2016/6/1 0:56,1.7,16,1.7,2,3.6,15
2016/6/1 0:57,1.8,16,1.8,2,2.5,16
2016/6/1 0:58,1.8,16,1.8,2,5.4,2
2016/6/1 0:59,1.7,16,1.8,2,5.7,16
2016/6/1 1:00,1.7,16,1.7,2,3.6,2
2016/6/1 1:01,1.6,16,1.7,2,5.8,2
2016/6/1 1:02,1.7,16,1.7,2,4.5,1
2016/6/1 1:03,1.8,16,1.8,1,4.5,1
2016/6/1 1:04,2.1,16,2.1,16,5.8,3
2016/6/1 1:05,2.2,1,2.2,1,6.7,2
2016/6/1 1:06,2.3,1,2.3,1,5.6,2
2016/6/1 1:07,2.4,1,2.4,1,3.3,3
2016/6/1 1:08,2.5,1,2.5,1,5.5,1
2016/6/1 1:09,2.6,2,2.6,1,8.1,2
2016/6/1 1:10,2.8,2,2.8,2,7.4,3
2016/6/1 1:11,2.8,2,2.8,2,3.7,1
2016/6/1 1:12,2.8,2,2.8,2,4.9,1
2016/6/1 1:13,2.8,2,2.8,2,4.9,1
2016/6/1 1:14,2.8,1,2.8,2,6.4,1
2016/6/1 1:15,2.8,1,2.8,2,7.2,1
2016/6/1 1:16,2.8,1,2.8,2,6.9,1
2016/6/1 1:17,3,1,3,1,6.1,3
2016/6/1 1:18,3.2,1,3.2,1,7.4,2
2016/6/1 1:19,3.1,1,3.2,1,5.4,3
2016/6/1 1:20,3.3,1,3.3,1,10.2,2
2016/6/1 1:21,3.3,1,3.4,1,5.8,16
2016/6/1 1:22,3.5,1,3.5,1,7.1,16
2016/6/1 1:23,3.5,1,3.5,1,3.9,2
2016/6/1 1:24,3.5,1,3.5,1,5.2,2
2016/6/1 1:25,3.5,1,3.5,1,5.5,1
2016/6/1 1:26,3.4,1,3.5,1,6,2
2016/6/1 1:27,3.5,1,3.5,1,8.2,2
2016/6/1 1:28,3.6,1,3.6,1,9.1,1
2016/6/1 1:29,3.7,1,3.7,1,7.5,16
2016/6/1 1:30,3.6,1,3.7,1,4.9,4
2016/6/1 1:31,3.6,2,3.6,1,5.8,2
2016/6/1 1:32,3.8,2,3.8,2,7.8,3
2016/6/1 1:33,3.9,2,3.9,2,6.5,2
2016/6/1 1:34,3.7,2,3.9,2,3.7,3
2016/6/1 1:35,3.7,2,3.7,2,3.3,1
2016/6/1 1:36,3.6,2,3.7,2,4.4,15
2016/6/1 1:37,3.6,2,3.6,2,5.8,15
2016/6/1 1:38,3.3,1,3.6,2,6.3,15
2016/6/1 1:39,3.1,1,3.3,2,3.9,16
2016/6/1 1:40,2.9,2,3.1,2,2.5,5
2016/6/1 1:41,2.6,2,2.9,2,2.4,3
2016/6/1 1:42,2.2,1,2.6,2,1.3,15
2016/6/1 1:43,1.8,1,2.1,2,0.3,1
2016/6/1 1:44,1.8,1,1.8,2,3.9,3
2016/6/1 1:45,1.7,1,1.8,2,3.5,16
2016/6/1 1:46,1.6,1,1.7,2,2.2,12
2016/6/1 1:47,1.5,16,1.6,2,2.2,13
2016/6/1 1:48,1.3,16,1.4,1,2.6,12
2016/6/1 1:49,1.2,14,1.3,1,2.1,11
2016/6/1 1:50,1.2,13,1.2,2,2.4,8
2016/6/1 1:51,1.2,12,1.2,2,2.4,8
2016/6/1 1:52,1.4,11,1.4,1,2.7,7
2016/6/1 1:53,1.6,10,1.6,1,3,6
2016/6/1 1:54,1.7,9,1.7,1,4.8,6
2016/6/1 1:55,2,9,2,9,5.7,4
2016/6/1 1:56,2.2,8,2.2,8,5.4,4
2016/6/1 1:57,2.3,7,2.3,7,6.8,5
2016/6/1 1:58,2.5,7,2.5,7,7.4,3
2016/6/1 1:59,2.9,6,2.9,6,9.2,1
2016/6/1 2:00,3.1,5,3.1,5,5.6,16
2016/6/1 2:01,3.4,4,3.4,4,7.5,2
2016/6/1 2:02,3.6,3,3.6,3,6.1,1
2016/6/1 2:03,3.7,3,3.7,3,6,3
2016/6/1 2:04,3.7,2,3.7,3,6.4,3
2016/6/1 2:05,3.4,2,3.7,3,3.7,1
2016/6/1 2:06,3.6,2,3.6,3,9.3,16
2016/6/1 2:07,3.8,1,3.8,1,9.3,2
2016/6/1 2:08,3.7,1,3.8,1,4.7,2
2016/6/1 2:09,3.7,2,3.7,1,8.2,5
2016/6/1 2:10,3.6,2,3.6,1,5.6,4
2016/6/1 2:11,3.4,2,3.6,1,6.2,2
2016/6/1 2:12,3.4,2,3.5,1,4.9,3
2016/6/1 2:13,3.6,2,3.6,1,8.2,1
2016/6/1 2:14,3.7,2,3.7,1,8.6,2
2016/6/1 2:15,3.9,2,3.9,2,5.7,2
2016/6/1 2:16,3.9,2,4,2,5.4,1
2016/6/1 2:17,3.6,2,3.8,2,4.8,3
2016/6/1 2:18,3.5,2,3.6,2,3.9,2
2016/6/1 2:19,3.2,2,3.5,2,2.4,1
2016/6/1 2:20,2.9,2,3.1,2,1.6,3
2016/6/1 2:21,2.8,2,2.9,2,3.3,2
2016/6/1 2:22,2.9,2,2.9,2,6.8,2
2016/6/1 2:23,2.7,2,2.9,2,5.2,1
2016/6/1 2:24,2.6,2,2.6,2,7.7,15
2016/6/1 2:25,2.5,2,2.6,2,4.2,2
2016/6/1 2:26,2.4,2,2.5,2,3.7,2
2016/6/1 2:27,2.4,1,2.5,2,4.8,15
2016/6/1 2:28,2.4,2,2.4,2,3.3,4
2016/6/1 2:29,2.5,2,2.5,2,3.7,3
2016/6/1 2:30,2.7,2,2.7,2,4.3,2
2016/6/1 2:31,2.9,2,2.9,2,4.1,2
2016/6/1 2:32,3,2,3,2,9.3,2
2016/6/1 2:33,3.1,2,3.1,2,9.1,15
2016/6/1 2:34,3.2,2,3.3,2,7.8,1
2016/6/1 2:35,3.4,2,3.4,2,7.6,3
2016/6/1 2:36,3.6,2,3.6,2,6.3,3
2016/6/1 2:37,3.7,2,3.7,2,6.8,16
2016/6/1 2:38,3.7,2,3.7,2,5.1,15
2016/6/1 2:39,3.8,2,3.8,2,6,2
2016/6/1 2:40,3.8,2,3.9,2,6.3,3
2016/6/1 2:41,3.9,2,3.9,2,5.1,3
2016/6/1 2:42,3.6,2,3.9,2,3.7,16
2016/6/1 2:43,3.4,2,3.6,2,5.7,3
2016/6/1 2:44,3.4,2,3.4,2,7.1,16
2016/6/1 2:45,3.3,2,3.4,2,7,3
2016/6/1 2:46,3.3,2,3.3,2,6.3,2
2016/6/1 2:47,3.4,2,3.4,2,10.7,16
2016/6/1 2:48,3.7,2,3.7,2,9.1,1
2016/6/1 2:49,3.6,2,3.7,2,5.6,15
2016/6/1 2:50,3.7,2,3.7,2,7.1,2
2016/6/1 2:51,3.9,1,3.9,2,7.7,16
2016/6/1 2:52,4.2,1,4.2,1,11.8,1
2016/6/1 2:53,4.4,1,4.4,1,6.4,2
2016/6/1 2:54,4.2,1,4.4,1,4.9,3
2016/6/1 2:55,4.3,1,4.3,1,10.7,1
2016/6/1 2:56,4.4,1,4.4,1,8.9,16
2016/6/1 2:57,4.3,1,4.4,1,7.8,1
2016/6/1 2:58,4,1,4.2,1,6.1,2
2016/6/1 2:59,4,1,4,1,5.5,1
2016/6/1 3:00,3.8,1,4,1,4.4,1
2016/6/1 3:01,3.6,1,3.8,1,5,1
2016/6/1 3:02,3.2,1,3.6,1,3,16
2016/6/1 3:03,2.9,1,3.2,1,2.6,2
2016/6/1 3:04,2.9,1,2.9,1,2.5,1
2016/6/1 3:05,2.5,1,2.8,1,2.2,2
2016/6/1 3:06,2.1,2,2.5,1,2,3
2016/6/1 3:07,1.9,2,2,1,3.8,3
2016/6/1 3:08,2.1,2,2.1,1,9.1,1
2016/6/1 3:09,2.3,2,2.3,1,8.3,1
2016/6/1 3:10,2.4,2,2.4,1,6.7,1
2016/6/1 3:11,2.4,2,2.4,1,7.4,2
2016/6/1 3:12,2.4,2,2.4,1,5.1,16
2016/6/1 3:13,2.7,2,2.7,1,7.2,16
2016/6/1 3:14,2.9,2,2.9,2,6.5,16
2016/6/1 3:15,3.2,2,3.2,2,9.4,3
2016/6/1 3:16,3.4,1,3.4,1,5,1
2016/6/1 3:17,3.6,1,3.6,1,8.5,2
2016/6/1 3:18,3.6,1,3.7,2,6.5,3
2016/6/1 3:19,3.5,2,3.6,2,6,3
2016/6/1 3:20,3.7,2,3.7,2,8.1,16
2016/6/1 3:21,3.9,1,3.9,1,8.9,1
2016/6/1 3:22,3.9,1,3.9,1,3.9,16
2016/6/1 3:23,4,1,4,1,8.7,1
2016/6/1 3:24,4.1,2,4.1,1,8.9,16
2016/6/1 3:25,4.2,1,4.2,1,9.4,2
2016/6/1 3:26,4.1,1,4.2,1,5.6,16
2016/6/1 3:27,4,1,4.1,1,6.1,2
2016/6/1 3:28,4,1,4.1,1,9.3,16
2016/6/1 3:29,3.9,1,4,1,6.1,16
2016/6/1 3:30,3.8,1,4,1,5.8,1
2016/6/1 3:31,3.7,1,3.8,1,6.2,15
2016/6/1 3:32,3.7,1,3.7,1,3.9,3
2016/6/1 3:33,3.3,1,3.7,1,3.7,15
2016/6/1 3:34,3.1,1,3.2,1,4.1,1
2016/6/1 3:35,2.7,1,3.1,1,2.4,1
2016/6/1 3:36,2.5,1,2.7,1,1.9,3
2016/6/1 3:37,2.4,1,2.5,1,2.2,1
2016/6/1 3:38,2,1,2.4,1,1.4,2
2016/6/1 3:39,1.7,1,1.9,1,0.9,16
2016/6/1 3:40,1.6,1,1.7,1,2.5,16
2016/6/1 3:41,1.4,1,1.6,1,2.7,16
2016/6/1 3:42,1.3,1,1.4,1,2.7,2
2016/6/1 3:43,1.4,1,1.4,1,5.6,3
2016/6/1 3:44,1.7,1,1.7,1,9.3,2
2016/6/1 3:45,1.8,1,1.8,1,8.4,3
2016/6/1 3:46,2.4,1,2.4,1,10.3,3
2016/6/1 3:47,2.9,1,2.9,1,10.9,2
2016/6/1 3:48,3.4,1,3.4,1,8.5,2
2016/6/1 3:49,3.8,2,3.8,1,10.1,3
2016/6/1 3:50,4.2,2,4.2,2,10.8,3
2016/6/1 3:51,4.4,2,4.4,2,9.8,3
2016/6/1 3:52,5,2,5,2,9.3,1
2016/6/1 3:53,5.1,2,5.1,2,7.9,1
2016/6/1 3:54,5.1,2,5.2,2,7.6,1
2016/6/1 3:55,5.1,2,5.2,2,3.7,2
2016/6/1 3:56,4.6,2,5,2,6.4,1
2016/6/1 3:57,4.6,2,4.6,2,10.8,2
2016/6/1 3:58,4.7,2,4.7,2,9.2,3
2016/6/1 3:59,4.7,2,4.7,2,9.7,3
2016/6/1 4:00,4.9,2,4.9,2,10.7,3
2016/6/1 4:01,4.9,2,4.9,2,6.3,3
2016/6/1 4:02,4.7,2,4.8,2,7.9,1
2016/6/1 4:03,4.6,2,4.7,2,7,2
2016/6/1 4:04,4.4,2,4.6,2,6.8,2
2016/6/1 4:05,4.5,2,4.5,2,4.8,16
2016/6/1 4:06,4.7,2,4.7,2,8.1,1
2016/6/1 4:07,4.8,2,4.8,2,11.1,2
2016/6/1 4:08,4.7,2,4.9,2,9.1,1
2016/6/1 4:09,4.7,2,4.8,2,8.5,2
2016/6/1 4:10,4.3,2,4.6,2,6.7,2
2016/6/1 4:11,4.5,2,4.5,2,8.4,4
2016/6/1 4:12,4.4,2,4.5,2,6.5,16
2016/6/1 4:13,4.4,2,4.4,2,9.4,2
2016/6/1 4:14,4.5,2,4.5,2,7.9,2
2016/6/1 4:15,4.7,2,4.7,2,10.3,1
2016/6/1 4:16,4.6,2,4.8,2,7,2
2016/6/1 4:17,4.3,2,4.6,2,5.7,2
2016/6/1 4:18,4.1,2,4.2,2,10.7,2
2016/6/1 4:19,4.4,2,4.4,2,12.3,2
2016/6/1 4:20,4.5,2,4.5,2,8.2,2
2016/6/1 4:21,4.9,2,4.9,2,12.8,3
2016/6/1 4:22,4.8,2,4.9,2,10,3
2016/6/1 4:23,5,2,5,2,10.1,2
2016/6/1 4:24,4.9,2,5,2,6.8,2
2016/6/1 4:25,4.9,2,4.9,2,7.6,2
2016/6/1 4:26,5,2,5,2,8.5,1
2016/6/1 4:27,4.9,2,5,2,5.8,4
2016/6/1 4:28,4.9,2,5,2,5.8,2
2016/6/1 4:29,4.5,2,4.9,2,4.8,1
2016/6/1 4:30,4.2,2,4.5,2,4.5,1
2016/6/1 4:31,4,2,4.2,2,8.1,3
2016/6/1 4:32,4.1,2,4.1,2,7.1,2
2016/6/1 4:33,3.6,2,4,2,7.4,3
2016/6/1 4:34,3.6,2,3.6,2,10,2
2016/6/1 4:35,3.6,2,3.7,2,10.6,1
2016/6/1 4:36,3.4,2,3.6,2,4.4,3
2016/6/1 4:37,3.6,2,3.6,2,9.8,1
2016/6/1 4:38,3.8,2,3.8,2,10,1
2016/6/1 4:39,4.1,2,4.1,2,9.3,2
2016/6/1 4:40,4.4,2,4.4,2,10.9,16
2016/6/1 4:41,4.6,2,4.6,2,13.2,1
2016/6/1 4:42,4.9,2,4.9,2,11.9,15
2016/6/1 4:43,5.2,2,5.2,2,9.4,16
2016/6/1 4:44,5.4,2,5.4,2,8.7,4
2016/6/1 4:45,5.4,2,5.4,2,9.4,3
2016/6/1 4:46,5.8,2,5.8,2,7.9,16
2016/6/1 4:47,5.6,2,5.8,2,6.7,16
2016/6/1 4:48,5.3,2,5.6,2,5.1,1
2016/6/1 4:49,5,1,5.3,2,3.3,3
2016/6/1 4:50,4.6,1,5,2,3.1,13
2016/6/1 4:51,3.9,1,4.5,2,3,16
2016/6/1 4:52,3.6,1,3.9,2,7.2,1
2016/6/1 4:53,3.4,1,3.6,2,6,3
2016/6/1 4:54,3.5,1,3.6,2,8.9,3
2016/6/1 4:55,3.2,1,3.5,2,7.4,16
2016/6/1 4:56,3.3,1,3.3,2,10.1,3
2016/6/1 4:57,3.2,2,3.2,2,11.7,3
2016/6/1 4:58,3.5,2,3.5,2,11.9,1
2016/6/1 4:59,3.9,2,3.9,1,9.4,2
2016/6/1 5:00,4.4,2,4.4,1,8.3,3
2016/6/1 5:01,4.7,2,4.7,2,6.3,3
2016/6/1 5:02,4.6,2,4.7,2,4.2,5
2016/6/1 5:03,4.5,2,4.6,2,4.8,3
2016/6/1 5:04,4.3,2,4.5,2,5.6,2
2016/6/1 5:05,4.6,2,4.6,2,9.4,3
2016/6/1 5:06,4.3,2,4.5,2,7.5,1
2016/6/1 5:07,4.3,2,4.4,2,7.4,16
2016/6/1 5:08,4.2,2,4.3,2,9.1,16
2016/6/1 5:09,4,2,4.2,2,7.6,2
2016/6/1 5:10,4.1,2,4.1,2,10.1,2
2016/6/1 5:11,4,2,4.1,2,9,1
2016/6/1 5:12,4.3,2,4.3,2,8.2,2
2016/6/1 5:13,4.3,2,4.3,2,4.3,2
2016/6/1 5:14,4.2,2,4.3,2,6,14
2016/6/1 5:15,4.3,2,4.3,2,10.2,2
2016/6/1 5:16,4.4,2,4.4,2,8.7,1
2016/6/1 5:17,4.4,2,4.5,2,5.8,1
2016/6/1 5:18,4.1,2,4.4,2,3.9,3
2016/6/1 5:19,4,1,4.1,2,7.1,1
2016/6/1 5:20,3.6,1,3.9,2,3.9,3
2016/6/1 5:21,3.6,2,3.6,2,9,1
2016/6/1 5:22,3.5,1,3.6,2,8.9,1
2016/6/1 5:23,3.5,1,3.5,2,7.7,1
2016/6/1 5:24,3.7,1,3.7,2,9.8,15
2016/6/1 5:25,3.6,1,3.7,2,7.5,3
2016/6/1 5:26,3.5,1,3.5,2,7.6,16
2016/6/1 5:27,3.5,2,3.5,2,5,1
2016/6/1 5:28,3.7,1,3.7,2,6.9,1
2016/6/1 5:29,4,2,4,2,10.7,1
2016/6/1 5:30,4.1,1,4.1,1,7,16
2016/6/1 5:31,3.8,1,4.1,1,4.3,3
2016/6/1 5:32,3.7,1,3.8,1,3.7,2
2016/6/1 5:33,3.6,1,3.7,1,3.7,2
2016/6/1 5:34,3.6,1,3.6,1,9,3
2016/6/1 5:35,3.6,1,3.6,1,8.7,16
2016/6/1 5:36,3.5,1,3.6,1,6.7,2
2016/6/1 5:37,3.6,1,3.6,1,6.5,16
2016/6/1 5:38,3.7,1,3.7,1,9.4,16
2016/6/1 5:39,3.3,1,3.7,1,5.5,2
2016/6/1 5:40,3.3,1,3.3,1,4.4,3
2016/6/1 5:41,3.4,2,3.4,1,4.1,3
2016/6/1 5:42,3.3,1,3.4,1,3,1
2016/6/1 5:43,3.3,2,3.4,1,3,3
2016/6/1 5:44,3.1,2,3.4,1,3.3,3
2016/6/1 5:45,2.8,2,3.1,1,4.8,3
2016/6/1 5:46,2.8,3,2.8,1,4.9,3
2016/6/1 5:47,2.7,3,2.8,1,5.4,2
2016/6/1 5:48,2.3,3,2.7,1,4.5,2
2016/6/1 5:49,2.4,2,2.4,2,4.7,2
2016/6/1 5:50,2.4,2,2.4,2,5.7,2
2016/6/1 5:51,2.6,2,2.6,1,9.2,3
2016/6/1 5:52,2.9,3,2.9,2,7.2,4
2016/6/1 5:53,3.1,3,3.1,2,7,3
2016/6/1 5:54,3.5,3,3.5,3,7.9,3
2016/6/1 5:55,3.7,3,3.7,3,5.2,3
2016/6/1 5:56,3.7,2,3.7,3,6.8,4
2016/6/1 5:57,3.5,3,3.7,3,3.7,2
2016/6/1 5:58,3.6,3,3.6,3,5.6,4
2016/6/1 5:59,4,3,4,3,9.8,4
2016/6/1 6:00,3.9,3,4,3,3.1,4
2016/6/1 6:01,3.6,4,3.9,3,4.9,4
2016/6/1 6:02,3.5,4,3.6,3,5.6,3
2016/6/1 6:03,3.3,4,3.5,3,5.1,3
2016/6/1 6:04,3,4,3.3,3,3.6,4
2016/6/1 6:05,2.8,4,2.9,3,4.2,1
2016/6/1 6:06,2.8,4,2.8,3,5.2,2
2016/6/1 6:07,2.8,4,2.8,3,4.1,4
2016/6/1 6:08,2.7,4,2.8,3,3.2,3
2016/6/1 6:09,2.5,4,2.7,3,5.8,4
2016/6/1 6:10,2.5,3,2.5,3,4.9,16
2016/6/1 6:11,2.3,3,2.5,4,2,6
2016/6/1 6:12,2.4,3,2.4,4,5.8,3
2016/6/1 6:13,2.5,3,2.5,4,6.7,3
2016/6/1 6:14,2.7,3,2.7,4,6.1,4
2016/6/1 6:15,3,3,3,4,9.1,3
2016/6/1 6:16,3.3,3,3.3,3,9.1,3
2016/6/1 6:17,3.2,3,3.3,3,3.3,1
2016/6/1 6:18,3.1,3,3.2,3,2.2,16
2016/6/1 6:19,2.9,3,3.1,3,3.1,13
2016/6/1 6:20,3,3,3,3,6,1
2016/6/1 6:21,3.2,2,3.2,3,4.7,1
2016/6/1 6:22,3.2,2,3.3,3,5,3
2016/6/1 6:23,3,2,3.1,3,4.1,4
2016/6/1 6:24,2.9,2,3,3,5,2
2016/6/1 6:25,2.5,2,2.8,3,3.7,1
2016/6/1 6:26,2.3,2,2.4,3,6.9,1
2016/6/1 6:27,2.6,2,2.6,2,6.3,1
2016/6/1 6:28,2.8,2,2.8,2,8.4,1
2016/6/1 6:29,2.8,2,2.8,2,2.2,1
2016/6/1 6:30,2.7,2,2.7,2,5.1,2
2016/6/1 6:31,3.2,2,3.2,2,12.2,3
2016/6/1 6:32,3.5,2,3.5,2,10.1,2
2016/6/1 6:33,3.5,2,3.5,2,6.5,2
2016/6/1 6:34,3.5,2,3.5,2,5.7,5
2016/6/1 6:35,3.7,2,3.7,2,4.4,2
2016/6/1 6:36,3.8,3,3.8,2,8.4,16
2016/6/1 6:37,3.8,3,3.9,3,6.8,5
2016/6/1 6:38,3.9,3,3.9,3,7.1,2
2016/6/1 6:39,4.1,3,4.1,3,4.9,1
2016/6/1 6:40,4,2,4.1,3,6.1,16
2016/6/1 6:41,3.4,2,4,3,2.2,16
2016/6/1 6:42,2.9,2,3.3,3,2.7,16
2016/6/1 6:43,2.8,2,2.9,3,2.4,16
2016/6/1 6:44,2.7,1,2.8,3,2.7,16
2016/6/1 6:45,2.5,1,2.6,3,2.6,16
2016/6/1 6:46,2.2,1,2.4,3,4.1,4
2016/6/1 6:47,2,1,2.2,3,6.4,7
2016/6/1 6:48,1.9,1,2,3,6.5,3
2016/6/1 6:49,2,1,2,3,7.8,1
2016/6/1 6:50,2.3,1,2.3,2,9.3,2
2016/6/1 6:51,2.8,1,2.8,2,9.3,2
2016/6/1 6:52,3.1,1,3.1,1,6.2,15
2016/6/1 6:53,3.3,1,3.3,1,5.7,3
2016/6/1 6:54,3.3,1,3.3,1,6,4
2016/6/1 6:55,3.4,2,3.4,1,7.7,3
2016/6/1 6:56,3.7,2,3.7,2,10.3,3
2016/6/1 6:57,3.7,2,3.7,2,4.7,2
2016/6/1 6:58,3.7,2,3.8,2,4.7,3
2016/6/1 6:59,3.5,2,3.7,2,3.5,4
2016/6/1 7:00,3.3,2,3.5,2,4.8,2
2016/6/1 7:01,2.8,2,3.2,2,3.2,15
2016/6/1 7:02,2.7,3,2.8,2,4.8,3
2016/6/1 7:03,2.8,3,2.8,2,6.5,3
2016/6/1 7:04,3.1,3,3.1,2,7.1,3
2016/6/1 7:05,3.3,3,3.3,2,10,4
2016/6/1 7:06,2.9,3,3.3,2,3.2,16
2016/6/1 7:07,2.8,3,2.9,2,3.9,15
2016/6/1 7:08,2.6,3,2.8,2,1.6,9
2016/6/1 7:09,2.6,3,2.6,2,2.7,12
2016/6/1 7:10,2.6,3,2.6,3,4.1,9
2016/6/1 7:11,2.5,3,2.6,3,2.1,7
2016/6/1 7:12,2.4,3,2.5,3,4.2,9
2016/6/1 7:13,2.1,10,2.3,3,1.9,9
2016/6/1 7:14,1.7,10,2,3,2.1,7
2016/6/1 7:15,1.3,11,1.6,3,0.9,8
2016/6/1 7:16,1.2,11,1.3,3,1.1,13
2016/6/1 7:17,1.1,11,1.2,3,1.5,16
2016/6/1 7:18,1.1,11,1.1,3,1.3,16
2016/6/1 7:19,0.9,12,1,3,0.9,12
2016/6/1 7:20,0.8,12,0.9,3,1.3,12
2016/6/1 7:21,0.8,12,0.8,3,1.3,14
2016/6/1 7:22,0.8,11,0.8,3,2,8
2016/6/1 7:23,0.7,11,0.8,10,1.8,7
2016/6/1 7:24,0.7,12,0.7,10,3.2,9
2016/6/1 7:25,0.8,11,0.8,11,3.1,10
2016/6/1 7:26,0.9,11,0.9,11,2.4,9
2016/6/1 7:27,1,11,1,11,2.6,10
2016/6/1 7:28,1.1,10,1.1,10,2.7,9
2016/6/1 7:29,1.3,10,1.3,10,3.3,8
2016/6/1 7:30,1.4,9,1.4,10,3,9
2016/6/1 7:31,1.6,9,1.6,9,3.9,8
2016/6/1 7:32,1.7,10,1.7,10,5.6,12
2016/6/1 7:33,1.7,10,1.8,10,5.2,12
2016/6/1 7:34,1.7,10,1.7,10,3.2,1
2016/6/1 7:35,1.7,10,1.7,10,2.1,2
2016/6/1 7:36,1.6,9,1.7,10,1.1,2
2016/6/1 7:37,1.5,9,1.6,10,0.9,6
2016/6/1 7:38,1.4,9,1.5,10,2,7
2016/6/1 7:39,1.5,9,1.5,10,3.8,9
2016/6/1 7:40,1.4,9,1.5,10,3,9
2016/6/1 7:41,1.4,8,1.4,10,2.9,8
2016/6/1 7:42,1.3,6,1.4,10,2.1,1
2016/6/1 7:43,1.4,5,1.4,10,4.8,4
2016/6/1 7:44,1.6,6,1.6,10,5.4,2
2016/6/1 7:45,1.6,6,1.6,10,2.6,3
2016/6/1 7:46,1.7,6,1.7,6,2,8
2016/6/1 7:47,1.8,7,1.8,7,1.8,9
2016/6/1 7:48,1.8,7,1.8,7,2.4,8
2016/6/1 7:49,1.7,7,1.8,7,3.9,9
2016/6/1 7:50,1.8,7,1.8,7,5,9
2016/6/1 7:51,1.9,7,1.9,7,5.2,9
2016/6/1 7:52,2.1,7,2.1,7,5.4,8
2016/6/1 7:53,2,7,2.1,7,3,7
2016/6/1 7:54,1.9,7,2,7,3.6,5
2016/6/1 7:55,1.9,8,1.9,7,2.5,4
2016/6/1 7:56,1.9,8,1.9,7,2.4,7
2016/6/1 7:57,1.9,7,1.9,7,1.5,7
2016/6/1 7:58,1.9,7,1.9,7,2.7,6
2016/6/1 7:59,1.8,7,1.9,7,1.5,5
2016/6/1 8:00,1.6,7,1.7,7,1.8,1
2016/6/1 8:01,1.5,6,1.7,7,4.1,4
2016/6/1 8:02,1.4,5,1.5,7,4.3,3
2016/6/1 8:03,1.4,5,1.4,7,4.2,1
2016/6/1 8:04,1.4,4,1.5,7,4.4,4
2016/6/1 8:05,1.4,4,1.5,8,3.5,6
2016/6/1 8:06,1.4,4,1.4,8,2,9
2016/6/1 8:07,1.4,4,1.4,7,1.8,1
2016/6/1 8:08,1.3,3,1.4,7,2,1
2016/6/1 8:09,1.5,3,1.5,7,5,3
2016/6/1 8:10,1.7,4,1.7,7,3.7,3
2016/6/1 8:11,1.7,4,1.7,4,4.4,4
2016/6/1 8:12,1.7,4,1.8,4,4.1,5
2016/6/1 8:13,1.8,5,1.8,4,3.9,5
2016/6/1 8:14,1.8,5,1.8,4,3.2,4
2016/6/1 8:15,1.9,4,1.9,4,3,3
2016/6/1 8:16,1.9,4,1.9,4,1.6,3
2016/6/1 8:17,1.9,4,1.9,4,1.6,6
2016/6/1 8:18,1.9,5,1.9,4,1.5,7
2016/6/1 8:19,1.8,5,1.9,4,1.5,7
2016/6/1 8:20,1.7,5,1.8,4,1.8,8
2016/6/1 8:21,1.6,5,1.7,4,1.8,6
2016/6/1 8:22,1.6,5,1.6,4,3.6,8
2016/6/1 8:23,1.5,6,1.5,4,5.1,5
2016/6/1 8:24,1.5,6,1.5,4,5.4,3
2016/6/1 8:25,1.6,6,1.6,4,3.8,4
2016/6/1 8:26,1.5,6,1.6,4,1,4
2016/6/1 8:27,1.5,6,1.5,4,1.5,4
2016/6/1 8:28,1.5,6,1.5,5,2.6,4
2016/6/1 8:29,1.5,5,1.5,5,3.9,5
2016/6/1 8:30,1.6,5,1.6,5,3.6,6
2016/6/1 8:31,1.6,5,1.6,5,2.4,8
2016/6/1 8:32,1.5,5,1.6,6,2.1,6
2016/6/1 8:33,1.5,5,1.5,6,3,11
2016/6/1 8:34,1.4,6,1.5,6,2.7,11
2016/6/1 8:35,1.4,7,1.4,6,3.8,9
2016/6/1 8:36,1.6,7,1.6,5,5.6,8
2016/6/1 8:37,1.7,7,1.7,7,3.2,13
2016/6/1 8:38,1.8,7,1.8,7,4.3,3
2016/6/1 8:39,1.9,7,1.9,7,5,5
2016/6/1 8:40,2,7,2,7,4.4,5
2016/6/1 8:41,2.1,6,2.1,7,3.5,7
2016/6/1 8:42,2.1,6,2.2,6,3,6
2016/6/1 8:43,2.1,6,2.1,6,1.1,5
2016/6/1 8:44,1.9,5,2,6,1.5,7
2016/6/1 8:45,1.8,5,1.9,6,1.1,3
2016/6/1 8:46,1.6,5,1.8,6,1.8,10
2016/6/1 8:47,1.6,5,1.6,6,2.4,7
2016/6/1 8:48,1.5,5,1.6,6,3,6
2016/6/1 8:49,1.5,5,1.5,6,3.2,15
2016/6/1 8:50,1.3,5,1.4,6,2.7,2
2016/6/1 8:51,1.3,5,1.3,6,4.3,13
2016/6/1 8:52,1.3,4,1.3,6,3,16
2016/6/1 8:53,1.4,1,1.4,6,4.1,15
2016/6/1 8:54,1.6,16,1.6,5,6.9,1
2016/6/1 8:55,1.9,15,1.9,15,5.2,14
2016/6/1 8:56,2,15,2,15,3.1,15
2016/6/1 8:57,2,15,2,15,3.2,12
2016/6/1 8:58,2,15,2,15,1.8,6
2016/6/1 8:59,2,15,2,15,2.9,2
2016/6/1 9:00,2.1,15,2.1,15,6.1,15
2016/6/1 9:01,2.1,15,2.2,15,3.1,16
2016/6/1 9:02,2,15,2.1,15,2.4,14
2016/6/1 9:03,2.2,15,2.2,15,7.2,14
2016/6/1 9:04,2.2,15,2.3,15,4.4,2
2016/6/1 9:05,2.2,15,2.3,15,6.9,16
2016/6/1 9:06,2.3,15,2.3,15,4.9,16
2016/6/1 9:07,2.5,16,2.5,16,3.6,1
2016/6/1 9:08,2.6,16,2.6,16,3.2,16
2016/6/1 9:09,2.6,16,2.6,16,2.6,5
2016/6/1 9:10,2.4,1,2.6,16,3.8,5
2016/6/1 9:11,2.4,1,2.4,16,3.5,9
2016/6/1 9:12,2.6,1,2.6,16,3.9,11
2016/6/1 9:13,2.4,2,2.6,16,4.3,11
2016/6/1 9:14,2.2,2,2.3,16,3,16
2016/6/1 9:15,2,1,2.2,16,2.5,13
2016/6/1 9:16,2,14,2,16,6.5,16
2016/6/1 9:17,2.1,13,2.1,16,9,14
2016/6/1 9:18,2.2,14,2.2,16,6.7,1
2016/6/1 9:19,2.2,14,2.2,16,3,13
2016/6/1 9:20,2.1,13,2.2,1,2.4,11
2016/6/1 9:21,2.1,14,2.2,1,2,13
2016/6/1 9:22,1.9,14,2.1,1,1.1,4
2016/6/1 9:23,1.7,15,1.8,2,1.4,4
2016/6/1 9:24,1.7,14,1.8,2,1.5,12
2016/6/1 9:25,1.8,15,1.8,13,3.5,2
2016/6/1 9:26,1.7,16,1.8,13,3.1,4
2016/6/1 9:27,1.6,16,1.7,13,7,11
2016/6/1 9:28,1.6,16,1.6,14,6.7,15
2016/6/1 9:29,1.6,16,1.6,14,3.9,16
2016/6/1 9:30,1.7,1,1.7,13,3.9,1
2016/6/1 9:31,1.9,2,1.9,14,4.4,6
2016/6/1 9:32,2,2,2,2,2.4,7
2016/6/1 9:33,2.1,2,2.1,2,4.1,7
2016/6/1 9:34,2.4,3,2.4,3,4.7,9
2016/6/1 9:35,2.4,5,2.4,3,7,8
2016/6/1 9:36,2.5,8,2.5,7,6.5,9
2016/6/1 9:37,2.5,8,2.6,9,5.5,9
2016/6/1 9:38,2.4,7,2.5,9,4.9,7
2016/6/1 9:39,2.2,8,2.4,9,1.6,1
2016/6/1 9:40,2.1,8,2.2,9,2.2,4
2016/6/1 9:41,2,8,2.1,9,2.7,3
2016/6/1 9:42,2,7,2,9,3.3,3
2016/6/1 9:43,2.2,6,2.2,9,5.6,5
2016/6/1 9:44,2,5,2.2,9,2.4,5
2016/6/1 9:45,1.9,4,2,9,2.7,6
2016/6/1 9:46,1.8,5,1.9,9,3.2,8
2016/6/1 9:47,1.7,5,1.8,8,2.5,9
2016/6/1 9:48,1.6,4,1.7,7,1.9,11
2016/6/1 9:49,1.8,3,1.8,8,5.2,15
2016/6/1 9:50,1.9,4,1.9,6,3,10
2016/6/1 9:51,2,7,2,6,6,15
2016/6/1 9:52,2.2,11,2.2,6,8.2,15
2016/6/1 9:53,2.4,13,2.4,13,8.2,15
2016/6/1 9:54,2.6,13,2.6,13,6,1
2016/6/1 9:55,2.9,15,2.9,15,4.8,3
2016/6/1 9:56,2.9,15,2.9,15,4.5,16
2016/6/1 9:57,3,16,3,16,4.5,1
2016/6/1 9:58,3.1,16,3.1,16,5.2,3
2016/6/1 9:59,3.3,1,3.3,1,8.7,3
2016/6/1 10:00,3.6,1,3.6,1,7.7,3
2016/6/1 10:01,3.6,2,3.7,1,5.4,3
2016/6/1 10:02,3.4,2,3.6,1,3.3,16
2016/6/1 10:03,3.1,2,3.4,1,3.5,3
2016/6/1 10:04,2.9,2,3.1,1,2.5,14
2016/6/1 10:05,2.7,2,2.8,1,3.9,15
2016/6/1 10:06,2.8,1,2.8,1,6.8,13
2016/6/1 10:07,2.8,1,2.8,1,3.2,12
2016/6/1 10:08,2.7,1,2.8,1,4.1,16
2016/6/1 10:09,2.4,16,2.7,1,4.8,13
2016/6/1 10:10,2.1,15,2.4,1,2.4,14
2016/6/1 10:11,2.1,15,2.1,2,5.8,14
2016/6/1 10:12,2.2,15,2.2,2,5.7,15
2016/6/1 10:13,2.2,15,2.2,2,3.2,1
2016/6/1 10:14,2.3,15,2.3,2,4.9,16
2016/6/1 10:15,2.3,15,2.3,2,2.9,3
2016/6/1 10:16,2.1,16,2.3,1,2.7,1
2016/6/1 10:17,2.2,16,2.2,1,3.6,3
2016/6/1 10:18,2.2,16,2.2,1,4.4,2
2016/6/1 10:19,2.2,16,2.2,16,4.4,16
2016/6/1 10:20,2.5,16,2.5,16,7.6,2
2016/6/1 10:21,2.5,16,2.6,16,6.8,16
2016/6/1 10:22,2.7,1,2.7,16,9.4,16
2016/6/1 10:23,2.9,1,2.9,1,6.7,1
2016/6/1 10:24,3,1,3,1,5.1,16
2016/6/1 10:25,3,16,3,1,3.9,16
2016/6/1 10:26,3.1,16,3.1,16,5.4,16
2016/6/1 10:27,3.4,16,3.4,16,8.3,1
2016/6/1 10:28,3.8,16,3.8,16,8.9,15
2016/6/1 10:29,3.8,16,3.9,16,7.1,15
2016/6/1 10:30,3.8,16,3.8,16,7,15
2016/6/1 10:31,4.1,16,4.1,16,8.4,1
2016/6/1 10:32,3.7,16,4.1,16,4.9,16
2016/6/1 10:33,3.4,16,3.6,16,1.9,1
2016/6/1 10:34,3.3,15,3.4,16,4.1,16
2016/6/1 10:35,3.4,16,3.4,16,6.2,2
2016/6/1 10:36,3.5,16,3.5,16,6.8,16
2016/6/1 10:37,3.3,16,3.5,16,6,15
2016/6/1 10:38,3,16,3.2,16,6.5,15
2016/6/1 10:39,3.1,16,3.1,16,5.7,16
2016/6/1 10:40,3.1,16,3.2,16,6.4,16
2016/6/1 10:41,2.7,16,3.1,16,4.8,1
2016/6/1 10:42,2.6,16,2.7,16,3,16
2016/6/1 10:43,2.8,16,2.8,16,3.3,15
2016/6/1 10:44,2.8,16,2.8,16,4.2,14
2016/6/1 10:45,2.6,16,2.8,16,2.9,13
2016/6/1 10:46,2.5,15,2.7,16,5.5,15
2016/6/1 10:47,2.4,16,2.5,16,4.7,15
2016/6/1 10:48,2.3,15,2.4,16,5.1,15
2016/6/1 10:49,2.2,15,2.3,16,5.1,16
2016/6/1 10:50,2,15,2.2,16,3.9,16
2016/6/1 10:51,2,15,2,16,3.8,16
2016/6/1 10:52,2.3,15,2.3,16,7.5,16
2016/6/1 10:53,2.5,15,2.5,16,6,16
2016/6/1 10:54,2.6,15,2.6,16,4.3,16
2016/6/1 10:55,2.6,16,2.6,16,4.1,15
2016/6/1 10:56,2.6,16,2.6,15,3.3,16
2016/6/1 10:57,2.6,16,2.6,15,5,16
2016/6/1 10:58,2.7,16,2.7,16,7.8,15
2016/6/1 10:59,2.6,16,2.7,16,2.4,1
2016/6/1 11:00,2.4,1,2.6,16,1.5,2
2016/6/1 11:01,2.5,1,2.5,16,5.4,2
2016/6/1 11:02,2.4,1,2.5,16,5.2,16
2016/6/1 11:03,2.4,1,2.5,16,7.4,16
2016/6/1 11:04,2.5,1,2.5,16,6.7,16
2016/6/1 11:05,2.7,1,2.7,16,6.8,15
2016/6/1 11:06,2.8,1,2.8,1,7.4,15
2016/6/1 11:07,2.9,16,2.9,16,4.5,15
2016/6/1 11:08,2.7,16,2.9,16,4.8,16
2016/6/1 11:09,2.8,16,2.8,16,4.4,3
2016/6/1 11:10,3.1,16,3.1,16,6.2,15
2016/6/1 11:11,3.3,16,3.3,16,6.5,15
2016/6/1 11:12,3.3,15,3.4,16,6.7,15
2016/6/1 11:13,3.1,15,3.3,16,3.7,1
2016/6/1 11:14,3.1,15,3.1,16,7.9,15
2016/6/1 11:15,3,15,3.1,16,5.1,16
2016/6/1 11:16,2.8,15,3,16,3.5,15
2016/6/1 11:17,2.7,16,2.8,16,4.8,16
2016/6/1 11:18,2.7,16,2.7,16,4.2,16
2016/6/1 11:19,2.7,16,2.8,16,3.2,1
2016/6/1 11:20,2.5,16,2.7,16,2.6,16
2016/6/1 11:21,2.4,16,2.5,16,5.1,16
2016/6/1 11:22,2.1,16,2.3,15,3.2,15
2016/6/1 11:23,2.1,16,2.1,15,3.3,16
2016/6/1 11:24,1.9,16,2.1,15,3.7,1
2016/6/1 11:25,2.1,16,2.1,15,7.2,16
2016/6/1 11:26,2.3,16,2.3,15,6.3,1
2016/6/1 11:27,2.3,16,2.3,16,3.8,1
2016/6/1 11:28,2.2,16,2.3,16,2.6,14
2016/6/1 11:29,2.2,16,2.2,16,2.6,3
2016/6/1 11:30,2.2,16,2.2,16,3.2,2
2016/6/1 11:31,2,16,2.2,16,1.9,7
2016/6/1 11:32,2.1,1,2.1,16,4.2,3
2016/6/1 11:33,2.3,1,2.3,16,5,4
2016/6/1 11:34,2.5,1,2.5,1,6.2,16
2016/6/1 11:35,2.3,1,2.4,1,5.2,16
2016/6/1 11:36,2.3,1,2.3,1,7.1,15
2016/6/1 11:37,2.4,1,2.4,1,8.3,15
2016/6/1 11:38,2.6,1,2.6,1,5.8,14
2016/6/1 11:39,2.9,1,2.9,1,5.6,14
2016/6/1 11:40,2.9,1,2.9,1,5.6,1
2016/6/1 11:41,3,1,3,1,3.6,16
2016/6/1 11:42,2.9,16,3,1,3.8,16
2016/6/1 11:43,2.8,16,2.9,1,4.2,2
2016/6/1 11:44,2.9,16,2.9,1,6.7,1
2016/6/1 11:45,3,16,3,1,5.8,16
2016/6/1 11:46,3,16,3,1,5.8,1
2016/6/1 11:47,2.9,16,2.9,1,6.9,1
2016/6/1 11:48,2.8,1,2.9,1,4.4,16
2016/6/1 11:49,2.8,1,2.8,1,6.5,15
2016/6/1 11:50,3,16,3,1,6.7,3
2016/6/1 11:51,3.3,16,3.3,16,8.7,15
2016/6/1 11:52,3.5,16,3.5,16,9.2,16
2016/6/1 11:53,3.7,16,3.7,16,6.2,16